Powrót do katalogu

SL-12 R/B(2)

AktywnyGEO
NORAD 13899·ROCKET BODY·🇷🇺 Russia

Wystrzelony Mar 15, 1982 z Baikonur Cosmodrome

Loading…

TLE

ŚwieżeSource: Space-Track

Epoka: Sep 14, 2026, 14:20 UTC

1 13899U 82020F   26257.59772110 -.00000140  00000-0  00000+0 0  9991
2 13899   8.1095 299.3004 0026082 211.5636 172.1650  0.98636048121868

Śledź SL-12 R/B(2) w czasie rzeczywistym z AllMySat

Download on the App Store